Location: AstroGeek's Observatory
(41.9520°N, 70.9880°W)
Time: 06:00:35
(UTC-04:00)

ISS - All Passes

Search period start: 22 May 2015 00:00
Search period end: 01 June 2015 00:00
Orbit: 399 x 404 km, 51.6° (Epoch: 21 May)

Date Brightness Start Highest point End Pass type
(mag) Time Alt. Az. Time Alt. Az. Time Alt. Az.
22 May - 00:28:18 10° SSE 00:29:31 12° SE 00:30:51 10° ESE night (unlit)
22 May - 02:02:18 10° WSW 02:05:33 80° NNW 02:08:49 10° NE visible
22 May - 03:39:51 10° WNW 03:42:22 20° NNW 03:44:52 10° NE visible
22 May - 05:17:38 10° NW 05:19:41 15° N 05:21:44 10° NE daylight
22 May - 06:53:51 10° NW 06:56:50 32° NNE 06:59:50 10° E daylight
22 May - 08:30:14 10° WNW 08:33:17 36° SW 08:36:19 10° SSE daylight
23 May - 01:09:13 10° SW 01:12:23 52° SE 01:15:34 10° ENE visible
23 May - 02:46:08 10° W 02:48:58 26° NNW 02:51:48 10° NE visible
23 May - 04:24:12 10° NW 04:26:11 15° N 04:28:10 10° NE visible
23 May - 06:00:47 10° NW 06:03:28 23° NNE 06:06:09 10° ENE daylight
23 May - 07:36:54 10° WNW 07:40:10 73° SW 07:43:25 10° SE daylight
24 May - 00:16:31 10° SSW 00:19:16 26° SE 00:22:05 10° ENE visible
24 May - 01:52:30 10° W 01:55:36 39° NNW 01:58:41 10° NE visible
24 May - 03:30:32 10° NW 03:32:41 16° N 03:34:48 10° NNE visible
24 May - 05:07:39 10° NNW 05:10:00 18° NNE 05:12:22 10° ENE daylight
24 May - 06:43:41 10° NW 06:46:55 60° NNE 06:50:09 10° ESE daylight
24 May - 08:20:53 10° W 08:23:04 16° SW 08:25:09 10° S daylight
24 May - 23:24:28 10° SSE 23:26:12 14° SE 23:28:01 10° E night (unlit)
25 May - 00:59:02 10° WSW 01:02:16 69° NW 01:05:32 10° NE visible
25 May - 02:36:44 10° WNW 02:39:09 19° NNW 02:41:34 10° NE visible
25 May - 04:14:23 10° NNW 04:16:28 16° N 04:18:33 10° NE visible
25 May - 05:50:31 10° NW 05:53:34 35° NNE 05:56:38 10° E daylight
25 May - 07:27:01 10° WNW 07:29:57 31° SW 07:32:52 10° SSE daylight
26 May - 00:05:48 10° SW 00:09:00 62° SE 00:12:14 10° ENE visible
26 May - 01:42:53 10° WNW 01:45:38 24° NNW 01:48:23 10° NE visible
26 May - 03:20:54 10° NW 03:22:53 15° N 03:24:51 10° NE visible
26 May - 04:57:22 10° NW 05:00:07 24° NNE 05:02:53 10° ENE daylight
26 May - 06:33:31 10° WNW 06:36:45 62° SW 06:39:59 10° SE daylight
26 May - 23:12:53 10° SSW 23:15:47 31° SE 23:18:43 10° ENE night (unlit)
27 May - 00:49:08 10° W 00:52:09 35° NNW 00:55:12 10° NE visible
27 May - 02:27:11 10° NW 02:29:16 16° N 02:31:20 10° NNE visible
27 May - 04:04:10 10° NW 04:06:35 19° NNE 04:09:01 10° ENE visible
27 May - 05:40:11 10° NW 05:43:27 69° NNE 05:46:42 10° ESE daylight
27 May - 07:17:42 10° W 07:19:31 14° SW 07:21:16 10° SSW daylight
27 May - 22:20:32 10° S 22:22:37 16° SE 22:24:45 10° E night (unlit)
27 May - 23:55:31 10° WSW 23:58:44 59° NNW 00:01:58 10° NE visible
28 May - 01:33:18 10° WNW 01:35:39 18° NNW 01:37:59 10° NNE visible
28 May - 03:10:50 10° NNW 03:12:58 16° N 03:15:06 10° NE visible
28 May - 04:46:56 10° NW 04:50:02 39° NNE 04:53:08 10° E daylight
28 May - 06:23:32 10° WNW 06:26:21 26° SW 06:29:07 10° SSE daylight
28 May - 23:02:08 10° SW 23:05:21 73° SE 23:08:36 10° ENE visible
29 May - 00:39:22 10° WNW 00:42:02 23° NNW 00:44:42 10° NE visible
29 May - 02:17:19 10° NW 02:19:18 15° N 02:21:16 10° NE visible
29 May - 03:53:41 10° NW 03:56:30 26° NNE 03:59:20 10° E visible
29 May - 05:29:53 10° WNW 05:33:05 52° SW 05:36:15 10° SE daylight
29 May - 22:09:02 10° SSW 22:12:01 36° SE 22:15:04 10° ENE visible
29 May - 23:45:29 10° W 23:48:27 32° NNW 23:51:26 10° NE visible
30 May - 01:23:34 10° NW 01:25:36 15° N 01:27:37 10° NNE visible
30 May - 03:00:24 10° NW 03:02:53 20° NNE 03:05:24 10° ENE visible
30 May - 04:36:26 10° NW 04:39:42 80° NE 04:42:57 10° ESE visible
30 May - 06:14:21 10° WSW 06:15:43 12° SW 06:16:59 10° SSW daylight
30 May - 21:16:25 10° S 21:18:45 19° SE 21:21:08 10° E visible
30 May - 22:51:44 10° WSW 22:54:56 52° NNW 22:58:07 10° NE visible
31 May - 00:29:36 10° NW 00:31:53 17° N 00:34:08 10° NNE visible
31 May - 02:07:01 10° NNW 02:09:11 16° N 02:11:23 10° NE visible
31 May - 03:43:03 10° NW 03:46:13 44° NNE 03:49:21 10° ESE visible
31 May - 05:19:48 10° W 05:22:28 23° SW 05:25:05 10° S daylight
31 May - 21:58:11 10° SW 22:01:26 84° SE 22:04:42 10° ENE visible
31 May - 23:35:34 10° WNW 23:38:10 21° NNW 23:40:45 10° NE visible
